Location: Cerda�ola
(41.4919°N, 2.1403°E)
Time: 18:38:36
(UTC+00:00)

ISS - Visible Passes

Search period start: 07 March 2021 00:00
Search period end: 17 March 2021 00:00
Orbit: 417 x 422 km, 51.6° (Epoch: 07 March)

Date Brightness Start Highest point End Pass type
(mag) Time Alt. Az. Time Alt. Az. Time Alt. Az.
07 Mar -1.0 03:58:45 15° NNE 03:58:45 15° NNE 04:00:19 10° NE visible
07 Mar -2.5 05:32:32 10° NW 05:35:42 38° NNE 05:38:52 10° E visible
08 Mar -1.9 04:46:09 16° NNW 04:48:06 27° NNE 04:51:02 10° E visible
09 Mar -1.5 04:00:40 21° NNE 04:00:40 21° NNE 04:03:07 10° ENE visible
09 Mar -3.8 05:34:14 10° NW 05:37:36 85° SSW 05:40:58 10° SE visible
10 Mar -3.3 04:48:16 24° NW 04:50:06 58° NNE 04:53:25 10° ESE visible
11 Mar -2.3 04:02:59 36° NE 04:02:59 36° NE 04:05:42 10° E visible
11 Mar -2.7 05:36:20 10° WNW 05:39:15 28° SW 05:42:11 10° SSE visible
12 Mar -3.5 04:50:51 35° W 04:51:52 48° SW 04:55:06 10° SE visible
13 Mar -2.2 04:05:56 30° SE 04:05:56 30° SE 04:07:45 10° SE visible
14 Mar -1.8 04:54:12 16° SSW 04:54:12 16° SSW 04:55:37 10° S visible
16 Mar -1.2 19:58:23 10° SW 19:59:01 15° SSW 19:59:01 15° SSW visible
